Time,TemperatureF,DewpointF,PressureIn,WindDirection,WindDirectionDegrees,WindSpeedMPH,WindSpeedGustMPH,Humidity,HourlyPrecipIn,Conditions,Clouds,dailyrainin,SolarRadiationWatts/m^2,SoftwareType,DateUTC
2013-01-17 00:02:00,40.0,19.0,-100.00,WSW,242,5.0,6.0,43,0.00,,,0.00,0.000000,,2013-01-17 06:02:00,
2013-01-17 00:33:00,39.0,22.0,-100.00,WSW,249,5.0,7.0,51,0.00,,,0.00,0.000000,,2013-01-17 06:33:00,
2013-01-17 00:42:00,39.0,22.0,-100.00,WSW,249,5.0,7.0,51,0.00,,,0.00,0.000000,,2013-01-17 06:42:00,
2013-01-17 00:53:00,39.0,22.0,-100.00,WSW,249,5.0,7.0,51,0.00,,,0.00,0.000000,,2013-01-17 06:53:00,
2013-01-17 01:02:00,39.0,22.0,-100.00,WSW,249,5.0,7.0,51,0.00,,,0.00,0.000000,,2013-01-17 07:02:00,
2013-01-17 01:33:00,38.0,25.0,-100.00,WSW,245,6.0,8.0,58,0.00,,,0.00,0.000000,,2013-01-17 07:33:00,
2013-01-17 01:43:00,38.0,25.0,-100.00,WSW,245,6.0,8.0,58,0.00,,,0.00,0.000000,,2013-01-17 07:43:00,
2013-01-17 01:52:00,38.0,25.0,-100.00,WSW,245,6.0,8.0,58,0.00,,,0.00,0.000000,,2013-01-17 07:52:00,
2013-01-17 02:02:00,38.0,25.0,-100.00,WSW,245,6.0,8.0,58,0.00,,,0.00,0.000000,,2013-01-17 08:02:00,
2013-01-17 02:32:00,38.0,26.0,-100.00,WSW,254,6.0,9.0,61,0.00,,,0.00,0.000000,,2013-01-17 08:32:00,
2013-01-17 02:43:00,38.0,26.0,-100.00,WSW,254,6.0,9.0,61,0.00,,,0.00,0.000000,,2013-01-17 08:43:00,
2013-01-17 02:53:00,38.0,26.0,-100.00,WSW,254,6.0,9.0,61,0.00,,,0.00,0.000000,,2013-01-17 08:53:00,
2013-01-17 03:02:00,38.0,26.0,-100.00,WSW,254,6.0,9.0,61,0.00,,,0.00,0.000000,,2013-01-17 09:02:00,
2013-01-17 03:33:00,37.0,26.0,-100.00,West,261,8.0,11.0,64,0.00,,,0.00,0.000000,,2013-01-17 09:33:00,
2013-01-17 03:43:00,37.0,26.0,-100.00,West,261,8.0,11.0,64,0.00,,,0.00,0.000000,,2013-01-17 09:43:00,
2013-01-17 03:52:00,37.0,26.0,-100.00,West,261,8.0,11.0,64,0.00,,,0.00,0.000000,,2013-01-17 09:52:00,
2013-01-17 04:02:00,37.0,26.0,-100.00,West,261,8.0,11.0,64,0.00,,,0.00,0.000000,,2013-01-17 10:02:00,
2013-01-17 04:33:00,37.0,27.0,-100.00,West,262,7.0,12.0,67,0.00,,,0.00,0.000000,,2013-01-17 10:33:00,
2013-01-17 04:43:00,37.0,27.0,-100.00,West,262,7.0,12.0,67,0.00,,,0.00,0.000000,,2013-01-17 10:43:00,
2013-01-17 04:53:00,37.0,27.0,-100.00,West,262,7.0,12.0,67,0.00,,,0.00,0.000000,,2013-01-17 10:53:00,
2013-01-17 05:02:00,37.0,27.0,-100.00,West,262,7.0,12.0,67,0.00,,,0.00,0.000000,,2013-01-17 11:02:00,
2013-01-17 05:33:00,37.0,28.0,-100.00,West,269,5.0,10.0,69,0.00,,,0.00,0.000000,,2013-01-17 11:33:00,
2013-01-17 05:43:00,37.0,28.0,-100.00,West,269,5.0,10.0,69,0.00,,,0.00,0.000000,,2013-01-17 11:43:00,
2013-01-17 05:53:00,37.0,28.0,-100.00,West,269,5.0,10.0,69,0.00,,,0.00,0.000000,,2013-01-17 11:53:00,
2013-01-17 06:02:00,37.0,28.0,-100.00,West,269,5.0,10.0,69,0.00,,,0.00,0.000000,,2013-01-17 12:02:00,
2013-01-17 06:33:00,36.0,28.0,-100.00,WNW,287,6.0,9.0,72,0.00,,,0.00,0.000000,,2013-01-17 12:33:00,
2013-01-17 06:43:00,36.0,28.0,-100.00,WNW,287,6.0,9.0,72,0.00,,,0.00,0.000000,,2013-01-17 12:43:00,
2013-01-17 06:53:00,36.0,28.0,-100.00,WNW,287,6.0,9.0,72,0.00,,,0.00,0.000000,,2013-01-17 12:53:00,
2013-01-17 07:03:00,36.0,28.0,-100.00,WNW,287,6.0,9.0,72,0.00,,,0.00,0.000000,,2013-01-17 13:03:00,
2013-01-17 07:33:00,35.0,28.0,-100.00,WNW,299,9.0,12.0,74,0.00,,,0.00,0.000000,,2013-01-17 13:33:00,
2013-01-17 07:43:00,35.0,28.0,-100.00,WNW,299,9.0,12.0,74,0.00,,,0.00,0.000000,,2013-01-17 13:43:00,
2013-01-17 07:53:00,35.0,28.0,-100.00,WNW,299,9.0,12.0,74,0.00,,,0.00,0.000000,,2013-01-17 13:53:00,
2013-01-17 08:03:00,35.0,28.0,-100.00,WNW,299,9.0,12.0,74,0.00,,,0.00,0.000000,,2013-01-17 14:03:00,
2013-01-17 08:33:00,35.0,29.0,-100.00,NW,309,6.0,12.0,77,0.00,,,0.00,16.000000,,2013-01-17 14:33:00,
2013-01-17 08:43:00,35.0,29.0,-100.00,NW,309,6.0,12.0,77,0.00,,,0.00,16.000000,,2013-01-17 14:43:00,
2013-01-17 08:53:00,35.0,29.0,-100.00,NW,309,6.0,12.0,77,0.00,,,0.00,16.000000,,2013-01-17 14:53:00,
2013-01-17 09:03:00,35.0,29.0,-100.00,NW,309,6.0,12.0,77,0.00,,,0.00,16.000000,,2013-01-17 15:03:00,
2013-01-17 09:33:00,39.0,30.0,-100.00,NW,320,6.0,9.0,69,0.00,,,0.00,200.000000,,2013-01-17 15:33:00,
2013-01-17 09:43:00,39.0,30.0,-100.00,NW,320,6.0,9.0,69,0.00,,,0.00,200.000000,,2013-01-17 15:43:00,
2013-01-17 09:53:00,39.0,30.0,-100.00,NW,320,6.0,9.0,69,0.00,,,0.00,200.000000,,2013-01-17 15:53:00,
2013-01-17 10:02:00,39.0,30.0,-100.00,NW,320,6.0,9.0,69,0.00,,,0.00,200.000000,,2013-01-17 16:02:00,
2013-01-17 10:34:00,45.0,31.0,-100.00,North,359,10.0,14.0,57,0.00,,,0.00,418.000000,,2013-01-17 16:34:00,
2013-01-17 10:44:00,45.0,31.0,-100.00,North,359,10.0,14.0,57,0.00,,,0.00,418.000000,,2013-01-17 16:44:00,
2013-01-17 10:53:00,45.0,31.0,-100.00,North,359,10.0,14.0,57,0.00,,,0.00,418.000000,,2013-01-17 16:53:00,
2013-01-17 11:03:00,45.0,31.0,-100.00,North,359,10.0,14.0,57,0.00,,,0.00,418.000000,,2013-01-17 17:03:00,
2013-01-17 11:33:00,50.0,32.0,-100.00,North,357,8.0,13.0,49,0.00,,,0.00,594.000000,,2013-01-17 17:33:00,
2013-01-17 11:43:00,50.0,32.0,-100.00,North,357,8.0,13.0,49,0.00,,,0.00,594.000000,,2013-01-17 17:43:00,
2013-01-17 11:53:00,50.0,32.0,-100.00,North,357,8.0,13.0,49,0.00,,,0.00,594.000000,,2013-01-17 17:53:00,
2013-01-17 12:03:00,50.0,32.0,-100.00,North,357,8.0,13.0,49,0.00,,,0.00,594.000000,,2013-01-17 18:03:00,
2013-01-17 12:34:00,54.0,31.0,-100.00,North,354,6.0,12.0,41,0.00,,,0.00,711.000000,,2013-01-17 18:34:00,
2013-01-17 12:44:00,54.0,31.0,-100.00,North,354,6.0,12.0,41,0.00,,,0.00,711.000000,,2013-01-17 18:44:00,
2013-01-17 12:53:00,54.0,31.0,-100.00,North,354,6.0,12.0,41,0.00,,,0.00,711.000000,,2013-01-17 18:53:00,
2013-01-17 13:03:00,54.0,31.0,-100.00,North,354,6.0,12.0,41,0.00,,,0.00,711.000000,,2013-01-17 19:03:00,
2013-01-17 13:33:00,57.0,30.0,-100.00,North,359,6.0,11.0,36,0.00,,,0.00,756.000000,,2013-01-17 19:33:00,
2013-01-17 13:43:00,57.0,30.0,-100.00,North,359,6.0,11.0,36,0.00,,,0.00,756.000000,,2013-01-17 19:43:00,
2013-01-17 13:53:00,57.0,30.0,-100.00,North,359,6.0,11.0,36,0.00,,,0.00,756.000000,,2013-01-17 19:53:00,
2013-01-17 14:03:00,57.0,30.0,-100.00,North,359,6.0,11.0,36,0.00,,,0.00,756.000000,,2013-01-17 20:03:00,
2013-01-17 15:34:00,60.0,29.0,-100.00,North,354,8.0,13.0,31,-99.99,,,0.00,636.000000,,2013-01-17 21:34:00,
2013-01-17 15:43:00,60.0,29.0,-100.00,North,354,8.0,13.0,31,-99.99,,,0.00,636.000000,,2013-01-17 21:43:00,
2013-01-17 15:53:00,60.0,29.0,-100.00,North,354,8.0,13.0,31,-99.99,,,0.00,636.000000,,2013-01-17 21:53:00,
2013-01-17 16:03:00,60.0,29.0,-100.00,North,354,8.0,13.0,31,-99.99,,,0.00,636.000000,,2013-01-17 22:03:00,
2013-01-17 16:33:00,60.0,28.0,-100.00,North,2,9.0,14.0,30,0.00,,,0.00,479.000000,,2013-01-17 22:33:00,
2013-01-17 16:43:00,60.0,28.0,-100.00,North,2,9.0,14.0,30,0.00,,,0.00,479.000000,,2013-01-17 22:43:00,
2013-01-17 16:53:00,60.0,28.0,-100.00,North,2,9.0,14.0,30,0.00,,,0.00,479.000000,,2013-01-17 22:53:00,
2013-01-17 17:03:00,60.0,28.0,-100.00,North,2,9.0,14.0,30,0.00,,,0.00,479.000000,,2013-01-17 23:03:00,
2013-01-17 17:33:00,58.0,27.0,-100.00,North,358,7.0,14.0,30,0.00,,,0.00,286.000000,,2013-01-17 23:33:00,
2013-01-17 17:43:00,58.0,27.0,-100.00,North,358,7.0,14.0,30,0.00,,,0.00,286.000000,,2013-01-17 23:43:00,
2013-01-17 17:53:00,58.0,27.0,-100.00,North,358,7.0,14.0,30,0.00,,,0.00,286.000000,,2013-01-17 23:53:00,
2013-01-17 18:03:00,58.0,27.0,-100.00,North,358,7.0,14.0,30,0.00,,,0.00,286.000000,,2013-01-18 00:03:00,
2013-01-17 18:33:00,53.0,28.0,-100.00,North,7,4.0,9.0,38,0.00,,,0.00,65.000000,,2013-01-18 00:33:00,
2013-01-17 18:43:00,53.0,28.0,-100.00,North,7,4.0,9.0,38,0.00,,,0.00,65.000000,,2013-01-18 00:43:00,
2013-01-17 18:53:00,53.0,28.0,-100.00,North,7,4.0,9.0,38,0.00,,,0.00,65.000000,,2013-01-18 00:53:00,
2013-01-17 19:03:00,53.0,28.0,-100.00,North,7,4.0,9.0,38,0.00,,,0.00,65.000000,,2013-01-18 01:03:00,
2013-01-17 19:33:00,50.0,27.0,-100.00,North,3,4.0,8.0,41,0.00,,,0.00,0.000000,,2013-01-18 01:33:00,
2013-01-17 19:43:00,50.0,27.0,-100.00,North,3,4.0,8.0,41,0.00,,,0.00,0.000000,,2013-01-18 01:43:00,
2013-01-17 19:53:00,50.0,27.0,-100.00,North,3,4.0,8.0,41,0.00,,,0.00,0.000000,,2013-01-18 01:53:00,
2013-01-17 20:02:00,50.0,27.0,-100.00,North,3,4.0,8.0,41,0.00,,,0.00,0.000000,,2013-01-18 02:02:00,
2013-01-17 20:33:00,46.0,27.0,-100.00,North,5,3.0,6.0,48,0.00,,,0.00,0.000000,,2013-01-18 02:33:00,
2013-01-17 20:43:00,46.0,27.0,-100.00,North,5,3.0,6.0,48,0.00,,,0.00,0.000000,,2013-01-18 02:43:00,
2013-01-17 20:53:00,46.0,27.0,-100.00,North,5,3.0,6.0,48,0.00,,,0.00,0.000000,,2013-01-18 02:53:00,
2013-01-17 21:02:00,46.0,27.0,-100.00,North,5,3.0,6.0,48,0.00,,,0.00,0.000000,,2013-01-18 03:02:00,
2013-01-17 21:33:00,47.0,29.0,-100.00,NNW,348,1.0,3.0,49,0.00,,,0.00,0.000000,,2013-01-18 03:33:00,
2013-01-17 21:43:00,47.0,29.0,-100.00,NNW,348,1.0,3.0,49,0.00,,,0.00,0.000000,,2013-01-18 03:43:00,
2013-01-17 21:53:00,47.0,29.0,-100.00,NNW,348,1.0,3.0,49,0.00,,,0.00,0.000000,,2013-01-18 03:53:00,
2013-01-17 22:02:00,47.0,29.0,-100.00,NNW,348,1.0,3.0,49,0.00,,,0.00,0.000000,,2013-01-18 04:02:00,
2013-01-17 22:33:00,46.0,27.0,-100.00,NW,326,2.0,4.0,47,0.00,,,0.00,0.000000,,2013-01-18 04:33:00,
2013-01-17 22:42:00,46.0,27.0,-100.00,NW,326,2.0,4.0,47,0.00,,,0.00,0.000000,,2013-01-18 04:42:00,
2013-01-17 22:53:00,46.0,27.0,-100.00,NW,326,2.0,4.0,47,0.00,,,0.00,0.000000,,2013-01-18 04:53:00,
2013-01-17 23:03:00,46.0,27.0,-100.00,NW,326,2.0,4.0,47,0.00,,,0.00,0.000000,,2013-01-18 05:03:00,
2013-01-17 23:33:00,44.0,28.0,-100.00,NW,316,2.0,3.0,52,0.00,,,0.00,0.000000,,2013-01-18 05:33:00,
2013-01-17 23:43:00,44.0,28.0,-100.00,NW,316,2.0,3.0,52,0.00,,,0.00,0.000000,,2013-01-18 05:43:00,
2013-01-17 23:53:00,44.0,28.0,-100.00,NW,316,2.0,3.0,52,0.00,,,0.00,0.000000,,2013-01-18 05:53:00,